This is the latest recevied weather packets stored in our database for station/object KC9GSD. If no packets are shown the sender has not sent any weather packets the latest 10 day(s).
| Time | Temp. | Humidity | Pressure | Rain* | Wind** | Luminosity | Snow |
|---|---|---|---|---|---|---|---|
| 1777553897 | 13.33° C | 86% | 1013.4 hPa | 0 mm | - | 170 W/m² | - |
| 1777553593 | 13.33° C | 86% | 1013.4 hPa | 0 mm | - | 149 W/m² | - |
| 1777553290 | 13.33° C | 86% | 1013.4 hPa | 0 mm | - | 142 W/m² | - |
| 1777552986 | 13.33° C | 88% | 1013.1 hPa | 0 mm | - | 85 W/m² | - |
| 1777552685 | 13.33° C | 88% | 1013.2 hPa | 0 mm | - | 86 W/m² | - |
| 1777552383 | 13.33° C | 87% | 1013.3 hPa | 0 mm | - | 106 W/m² | - |
| 1777552079 | 13.33° C | 89% | 1013.3 hPa | 0 mm | - | 134 W/m² | - |
| 1777551776 | 13.33° C | 90% | 1013.2 hPa | 0 mm | - | 84 W/m² | - |
| 1777551474 | 13.33° C | 88% | 1013.1 hPa | 0 mm | - | 83 W/m² | - |
| 1777551170 | 13.89° C | 92% | 1013 hPa | 0 mm | - | 91 W/m² | - |
| 1777550868 | 13.89° C | 91% | 1012.9 hPa | 0 mm | - | 84 W/m² | - |
| 1777550564 | 13.33° C | 92% | 1012.7 hPa | 0 mm | - | 69 W/m² | - |
| 1777550259 | 13.89° C | 93% | 1012.7 hPa | 0 mm | - | 72 W/m² | - |
| 1777549957 | 13.33° C | 93% | 1012.6 hPa | 0 mm | - | 55 W/m² | - |
| 1777549653 | 13.89° C | 94% | 1012.5 hPa | 0 mm | - | 54 W/m² | - |
| 1777549348 | 13.89° C | 95% | 1012.3 hPa | 0 mm | - | 52 W/m² | - |
| 1777549046 | 13.33° C | 96% | 1012.1 hPa | 0 mm | - | 49 W/m² | - |
| 1777548742 | 13.89° C | 97% | 1012 hPa | 0 mm | - | 30 W/m² | - |
| 1777548440 | 13.89° C | 97% | 1011.7 hPa | 0 mm | - | 22 W/m² | - |
| 1777548136 | 13.89° C | 97% | 1012 hPa | 0 mm | - | 17 W/m² | - |
| 1777547832 | 13.33° C | 97% | 1011.9 hPa | 0 mm | - | 15 W/m² | - |
| 1777547528 | 13.33° C | 97% | 1011.6 hPa | 0 mm | - | 10 W/m² | - |
| 1777547226 | 13.33° C | 97% | 1011.7 hPa | 0 mm | - | 7 W/m² | - |
| 1777546923 | 13.33° C | 97% | 1011.8 hPa | 0 mm | - | 5 W/m² | - |
| 1777546620 | 13.33° C | 97% | 1011.5 hPa | 0 mm | - | 3 W/m² | - |
* Rain latest hour (hover to see other rain measurements)
** Current wind speed in m/s (hover to see current wind gust speed)